Retour au catalogue

COSMOS 1818 COOLANT

ActifLEO
NORAD 36938·DEBRIS·🇷🇺 Russia

Lancé Feb 1, 1987 depuis Baikonur Cosmodrome

Loading…

Prochains Passages (prochaines 24 heures)

TLE

VieillissantSource: Space-Track

Époque: Sep 9, 2026, 10:12 UTC

1 36938U 87011S   26252.42517322  .00000410  00000-0  16540-3 0  9993
2 36938  65.0059 308.0079 0021237 283.0921  76.7797 14.38932539279900

Suivez COSMOS 1818 COOLANT en temps réel avec AllMySat

Download on the App Store